User: anonymous   Login
Location: Unspecified
(0.0000°N, 0.0000°E)
Time: 08:23:35
(UTC+00:00)
Language:

ES'HAIL 2 - Orbit

View from above orbital plane
View from above orbital plane
View from above satellite
View from above satellite

Ground track
Ground track

The orbit data is extracted from the following two-line orbital elements,

1 43700U 18090A   25138.93933549  .00000154  00000-0  00000-0 0  9996
2 43700   0.0195 290.7006 0002117 161.6675 148.4631  1.00269838 23726
Epoch (UTC): 18 May 2025 22:32:38
Eccentricity: 0.0002117
inclination: 0.0195°
perigee height: 35778 km
apogee height: 35795 km
right ascension of ascending node: 290.7006°
argument of perigee: 161.6675°
revolutions per day: 1.00269838
mean anomaly at epoch: 148.4631°
orbit number at epoch: 2372

The dashed part of the orbit path shows where the satellite is in the earth's shadow,  

DLR